Regional Weather Roundup
Issued by NWS Green Bay, WI

Home | Current Version | Previous Version | Graphics & Text | Print | Product List | Glossary Off
Versions: 1 2 3 4 5 6 7 8 9 10 11 12 13 14 15 16 17 18 19 20 21 22 23 24 25 26 27 28 29 30 31 32 33 34 35 36 37 38 39 40 41 42 43 44 45 46 47 48 49 50

000
ASUS43 KGRB 282110
RWRGRB

NORTH-CENTRAL AND NORTHEAST WISCONSIN REGIONAL WEATHER ROUNDUP
NATIONAL WEATHER SERVICE GREEN BAY WI
400 PM CDT MON JUL 28 2014

WIZ005-009-010>012-018-019-282200-
NORTH CENTRAL WISCONSIN

CITY           SKY/WX    TMP DP  RH WIND       PRES   REMARKS
IRONWOOD       NOT AVBL
MANITOWISH WTR CLOUDY    68  52  57 N8        30.11F
ARBOR VITAE    PTSUNNY   72  53  52 N9G18     30.11F
EAGLE RIVER    PTSUNNY   69  47  45 N12       30.10S
LAND O LAKES   MOSUNNY   70  47  44 N12G18    30.10F
RHINELANDER    CLOUDY    69  51  52 NW8       30.11F
PHILLIPS       CLOUDY    68  53  57 NW8       30.12S
ANTIGO         CLOUDY    68  52  55 N8        30.10S
TOMAHAWK       CLOUDY    67  49  53 NW8       30.12S
MERRILL        PTSUNNY   70  53  55 NW9       30.10S
$$

WIZ013-073-282200-
NORTHEAST WISCONSIN

CITY           SKY/WX    TMP DP  RH WIND       PRES   REMARKS
IRON MOUNTAIN  PTSUNNY   72  48  42 NW16G23   30.05S
MARINETTE      CLOUDY    66  52  59 SW6       30.04R
OCONTO         CLOUDY    67  55  65 S5        30.04S
$$

WIZ017-030-035>037-045-282200-
CENTRAL WISCONSIN

CITY           SKY/WX    TMP DP  RH WIND       PRES   REMARKS
MEDFORD        PTSUNNY   70  53  53 NW10      30.12F
WAUSAU         CLOUDY    73  50  44 NW10      30.08S
MOSINEE        MOSUNNY   72  52  49 NW14      30.11S
MARSHFIELD     PTSUNNY   73  52  47 NW15      30.11F
WISC RAPIDS    MOSUNNY   74  50  42 NW14      30.11F
STEVENS POINT  PTSUNNY   70  49  46 NW12G17   30.10S
WAUPACA        PTSUNNY   77  48  36 NW9       30.08S
SHAWANO        CLOUDY    74  50  42 N10G16    30.06S
CLINTONVILLE   PTSUNNY   75  45  33 NW12      30.06S
$$

WIZ038-039-048-051-282200-
FOX VALLEY

CITY           SKY/WX    TMP DP  RH WIND       PRES   REMARKS
NWS GREEN BAY  CLOUDY    72  54  53 VRB3      30.05F
APPLETON       PTSUNNY   72  48  43 N12G17    30.07F
OSHKOSH        PTSUNNY   73  52  47 N9        30.06F
FOND DU LAC    MOSUNNY   74  51  44 NW12      30.07F
$$

WIZ022-050-052-282200-
EAST CENTRAL WISCONSIN

CITY           SKY/WX    TMP DP  RH WIND       PRES   REMARKS
STURGEON BAY   PTSUNNY   66  48  52 E7        30.06S
MANITOWOC      PTSUNNY   60  46  59 SE8       30.07F
SHEBOYGAN      MOSUNNY   65  50  58 E7        30.08S
$$

LMZ563-521-522-541>543-282200-
LAKESHORE

STATION/POSITION TIME  TEMP    WIND        PRES    VSBY  WAVE
                       AIR SEA DIR/SP/G                  HT/PER
                 (UTC) (F)     (DEG/KT/KT) (MB)    (MI)  (FT/S)
SHEBOYGAN LKSHOR 2100   58      90/  3/  3 1018.9F
KEWAUNEE LKSHORE 2100   55     170/  6/  7 1018.9S
NORTHPORT PIER   2100   65     310/  5/  6 1016.9F
N MID LAKE BUOY  2100   55 55  200/  8/  8 1016.5F         1
S GREEN BAY BUOY 2000   65 67  190/  8     1018.3F
SISTER BAY LKSHO 2000   75        CALM       N/A
CHAMBERS ISLAND  2100   61     180/  4/  8 1017.6S
MENOMINEE LKSHOR 2100   63     180/  8/ 11 1018.0S
$$



USA.gov is the U.S. government's official web portal to all federal, state and local government web resources and services.